Time,TemperatureF,DewpointF,PressureIn,WindDirection,WindDirectionDegrees,WindSpeedMPH,WindSpeedGustMPH,Humidity,HourlyPrecipIn,Conditions,Clouds,dailyrainin,SoftwareType,DateUTC
2013-02-21 09:58:00,57.6,50.7,29.94,SSE,160,14.0,18.0,78,0.00,,,0.00,meteohub,2013-02-21 14:58:00,
2013-02-21 09:59:00,57.6,50.7,29.94,SSE,165,15.0,18.0,78,0.00,,,0.00,meteohub,2013-02-21 14:59:00,
2013-02-21 10:01:00,57.6,50.7,29.94,South,171,8.0,18.0,78,0.00,,,0.00,meteohub,2013-02-21 15:01:00,
2013-02-21 10:06:00,57.7,50.9,29.94,SSE,150,11.0,20.0,78,0.00,,,0.00,meteohub,2013-02-21 15:06:00,
2013-02-21 10:11:00,57.7,50.9,29.93,South,170,14.0,20.0,78,0.00,,,0.00,meteohub,2013-02-21 15:11:00,
2013-02-21 10:16:00,57.9,51.4,29.93,SSE,158,7.0,22.0,79,0.00,,,0.00,meteohub,2013-02-21 15:16:00,
2013-02-21 10:21:00,57.9,51.4,29.93,SSE,150,8.0,22.0,79,0.00,,,0.00,meteohub,2013-02-21 15:21:00,
2013-02-21 10:27:00,58.3,51.8,29.93,SSE,159,16.0,22.0,79,0.00,,,0.00,meteohub,2013-02-21 15:27:00,
2013-02-21 10:32:00,58.5,52.0,29.92,South,191,5.0,20.0,79,0.00,,,0.00,meteohub,2013-02-21 15:32:00,
2013-02-21 10:37:00,58.6,52.5,29.92,South,169,6.0,20.0,80,0.00,,,0.00,meteohub,2013-02-21 15:37:00,
2013-02-21 10:42:00,58.8,52.7,29.92,SE,130,14.0,20.0,80,0.00,,,0.00,meteohub,2013-02-21 15:42:00,
2013-02-21 10:47:00,59.0,52.9,29.92,South,169,13.0,17.0,80,0.00,,,0.00,meteohub,2013-02-21 15:47:00,
2013-02-21 10:52:00,59.2,53.1,29.93,SSE,167,11.0,17.0,80,0.00,,,0.00,meteohub,2013-02-21 15:52:00,
2013-02-21 10:57:00,59.4,53.2,29.92,SSE,155,10.0,17.0,80,0.00,,,0.00,meteohub,2013-02-21 15:57:00,
2013-02-21 11:02:00,59.4,53.2,29.93,SE,138,12.0,14.0,80,0.00,,,0.00,meteohub,2013-02-21 16:02:00,
2013-02-21 11:07:00,59.5,53.4,29.92,SE,146,9.0,14.0,80,0.00,,,0.00,meteohub,2013-02-21 16:07:00,
2013-02-21 11:12:00,59.7,54.0,29.92,SSE,153,6.0,16.0,81,0.00,,,0.00,meteohub,2013-02-21 16:12:00,
2013-02-21 11:17:00,59.9,54.1,29.92,South,180,4.0,16.0,81,0.00,,,0.00,meteohub,2013-02-21 16:17:00,
2013-02-21 11:22:00,60.4,54.5,29.92,South,171,6.0,16.0,81,0.00,,,0.00,meteohub,2013-02-21 16:22:00,
2013-02-21 11:27:00,60.6,54.7,29.91,SSE,167,6.0,14.0,81,0.00,,,0.00,meteohub,2013-02-21 16:27:00,
2013-02-21 11:32:00,61.2,55.2,29.91,South,180,8.0,16.0,81,0.00,,,0.00,meteohub,2013-02-21 16:32:00,
2013-02-21 11:37:00,61.3,55.4,29.90,SSE,154,14.0,19.0,81,0.00,,,0.00,meteohub,2013-02-21 16:37:00,
2013-02-21 11:42:00,61.7,55.8,29.90,SSE,164,12.0,19.0,81,0.00,,,0.00,meteohub,2013-02-21 16:42:00,
2013-02-21 11:47:00,61.9,55.9,29.89,SSE,158,11.0,19.0,81,0.00,,,0.00,meteohub,2013-02-21 16:47:00,
2013-02-21 11:52:00,62.1,56.1,29.89,South,175,10.0,21.0,81,0.00,,,0.00,meteohub,2013-02-21 16:52:00,
2013-02-21 11:57:00,62.1,56.1,29.88,South,182,16.0,21.0,81,0.00,,,0.00,meteohub,2013-02-21 16:57:00,
2013-02-21 12:02:00,62.2,56.3,29.89,SSE,155,11.0,20.0,81,0.00,,,0.00,meteohub,2013-02-21 17:02:00,
2013-02-21 12:07:00,62.4,56.5,29.89,SSE,160,11.0,20.0,81,0.00,,,0.00,meteohub,2013-02-21 17:07:00,
2013-02-21 12:12:00,62.8,56.8,29.89,SSE,148,6.0,20.0,81,0.00,,,0.00,meteohub,2013-02-21 17:12:00,
2013-02-21 12:17:00,63.0,57.0,29.89,SSE,150,12.0,16.0,81,0.00,,,0.00,meteohub,2013-02-21 17:17:00,
2013-02-21 12:22:00,63.1,57.2,29.89,SSW,202,6.0,19.0,81,0.00,,,0.00,meteohub,2013-02-21 17:22:00,
2013-02-21 12:27:00,63.5,57.6,29.88,SSE,149,13.0,20.0,81,0.00,,,0.00,meteohub,2013-02-21 17:27:00,
2013-02-21 12:32:00,63.9,57.6,29.88,SSW,196,6.0,20.0,80,0.00,,,0.00,meteohub,2013-02-21 17:32:00,
2013-02-21 12:37:00,63.9,57.9,29.88,SSE,163,7.0,19.0,81,0.00,,,0.00,meteohub,2013-02-21 17:37:00,
2013-02-21 12:42:00,63.9,57.9,29.88,SE,135,7.0,19.0,81,0.00,,,0.00,meteohub,2013-02-21 17:42:00,
2013-02-21 12:47:00,64.0,58.1,29.88,South,169,4.0,19.0,81,0.00,,,0.00,meteohub,2013-02-21 17:47:00,
2013-02-21 12:52:00,64.2,57.9,29.87,SSE,168,8.0,18.0,80,0.00,,,0.00,meteohub,2013-02-21 17:52:00,
2013-02-21 12:57:00,64.6,58.3,29.87,SSE,167,5.0,18.0,80,0.00,,,0.00,meteohub,2013-02-21 17:57:00,
2013-02-21 13:02:00,64.8,58.5,29.87,SSE,157,7.0,17.0,80,0.00,,,0.00,meteohub,2013-02-21 18:02:00,
2013-02-21 13:07:00,64.9,58.6,29.87,SSE,163,11.0,17.0,80,0.00,,,0.00,meteohub,2013-02-21 18:07:00,
2013-02-21 13:12:00,64.9,59.0,29.86,SE,144,13.0,14.0,81,0.00,,,0.00,meteohub,2013-02-21 18:12:00,
2013-02-21 13:17:00,65.1,59.2,29.85,SE,132,12.0,13.0,81,0.00,,,0.00,meteohub,2013-02-21 18:17:00,
2013-02-21 13:22:00,65.1,59.2,29.84,SSE,158,7.0,13.0,81,0.00,,,0.00,meteohub,2013-02-21 18:22:00,
2013-02-21 13:27:00,65.1,59.2,29.84,SSE,154,10.0,15.0,81,0.00,,,0.00,meteohub,2013-02-21 18:27:00,
2013-02-21 13:32:00,65.1,59.5,29.83,South,169,11.0,15.0,82,0.00,,,0.00,meteohub,2013-02-21 18:32:00,
2013-02-21 13:37:00,65.1,59.5,29.83,SSE,152,6.0,15.0,82,0.00,,,0.00,meteohub,2013-02-21 18:37:00,
2013-02-21 13:42:00,65.5,60.3,29.82,South,178,6.0,15.0,83,0.00,,,0.00,meteohub,2013-02-21 18:42:00,
2013-02-21 13:47:00,65.7,60.6,29.82,SSE,161,2.0,15.0,84,0.00,,,0.00,meteohub,2013-02-21 18:47:00,
2013-02-21 13:52:00,65.8,60.8,29.80,SSE,151,5.0,14.0,84,0.00,,,0.00,meteohub,2013-02-21 18:52:00,
2013-02-21 13:57:00,65.7,61.0,29.81,South,171,9.0,15.0,85,0.00,,,0.00,meteohub,2013-02-21 18:57:00,
2013-02-21 14:02:00,65.7,61.0,29.81,SSE,160,6.0,17.0,85,0.00,,,0.00,meteohub,2013-02-21 19:02:00,
2013-02-21 14:07:00,65.7,61.7,29.79,SSE,156,7.0,17.0,87,0.00,,,0.00,meteohub,2013-02-21 19:07:00,
2013-02-21 14:12:00,65.7,62.1,29.79,SSE,154,5.0,14.0,88,0.00,,,0.00,meteohub,2013-02-21 19:12:00,
2013-02-21 14:17:00,65.5,61.9,29.79,SSE,153,1.0,14.0,88,0.00,,,0.00,meteohub,2013-02-21 19:17:00,
2013-02-21 14:22:00,65.5,62.2,29.79,SSE,150,2.0,14.0,89,0.00,,,0.00,meteohub,2013-02-21 19:22:00,
2013-02-21 14:27:00,65.7,62.6,29.78,SSE,150,4.0,12.0,90,0.00,,,0.00,meteohub,2013-02-21 19:27:00,
2013-02-21 14:32:00,65.8,63.1,29.78,South,172,6.0,11.0,91,0.00,,,0.00,meteohub,2013-02-21 19:32:00,
2013-02-21 14:37:00,66.0,63.3,29.78,SSE,157,5.0,13.0,91,0.00,,,0.00,meteohub,2013-02-21 19:37:00,
2013-02-21 14:42:00,66.4,64.0,29.77,SSE,167,6.0,13.0,92,0.00,,,0.00,meteohub,2013-02-21 19:42:00,
2013-02-21 14:47:00,66.7,64.4,29.77,ESE,109,9.0,13.0,92,0.00,,,0.00,meteohub,2013-02-21 19:47:00,
2013-02-21 14:52:00,66.9,64.6,29.75,SE,134,8.0,11.0,92,0.00,,,0.00,meteohub,2013-02-21 19:52:00,
2013-02-21 14:57:00,66.7,64.0,29.76,SSW,195,2.0,19.0,91,0.00,,,0.00,meteohub,2013-02-21 19:57:00,
2013-02-21 15:02:00,66.9,64.6,29.77,SSW,207,6.0,19.0,92,0.00,,,0.00,meteohub,2013-02-21 20:02:00,
2013-02-21 15:07:00,67.1,64.8,29.77,SSE,160,2.0,11.0,92,0.00,,,0.00,meteohub,2013-02-21 20:07:00,
2013-02-21 15:12:00,67.3,65.1,29.76,SSE,167,4.0,11.0,93,0.00,,,0.00,meteohub,2013-02-21 20:12:00,
2013-02-21 15:17:00,67.5,65.3,29.76,South,169,10.0,13.0,93,0.00,,,0.00,meteohub,2013-02-21 20:17:00,
2013-02-21 15:22:00,67.5,65.3,29.77,SSW,202,6.0,14.0,93,0.00,,,0.00,meteohub,2013-02-21 20:22:00,
2013-02-21 15:27:00,67.5,65.3,29.77,SE,142,4.0,14.0,93,0.00,,,0.00,meteohub,2013-02-21 20:27:00,
2013-02-21 15:32:00,67.5,65.3,29.76,SSE,159,5.0,14.0,93,0.00,,,0.00,meteohub,2013-02-21 20:32:00,
2013-02-21 15:37:00,67.6,65.8,29.76,SSW,198,8.0,13.0,94,0.00,,,0.00,meteohub,2013-02-21 20:37:00,
2013-02-21 15:42:00,67.8,66.0,29.77,SSW,196,3.0,11.0,94,0.00,,,0.00,meteohub,2013-02-21 20:42:00,
2013-02-21 15:47:00,68.2,66.4,29.76,South,169,6.0,11.0,94,0.00,,,0.00,meteohub,2013-02-21 20:47:00,
2013-02-21 15:52:00,68.4,66.6,29.75,SW,215,4.0,13.0,94,0.00,,,0.00,meteohub,2013-02-21 20:52:00,
2013-02-21 15:57:00,68.5,66.7,29.76,SSW,202,5.0,13.0,94,0.00,,,0.00,meteohub,2013-02-21 20:57:00,
2013-02-21 16:02:00,68.7,66.9,29.75,SSW,198,7.0,12.0,94,0.00,,,0.00,meteohub,2013-02-21 21:02:00,
2013-02-21 16:07:00,69.1,67.3,29.75,South,170,4.0,13.0,94,0.00,,,0.00,meteohub,2013-02-21 21:07:00,
2013-02-21 16:12:00,69.3,67.1,29.75,South,186,11.0,16.0,93,0.00,,,0.00,meteohub,2013-02-21 21:12:00,
2013-02-21 16:17:00,69.4,67.3,29.75,South,187,5.0,16.0,93,0.00,,,0.00,meteohub,2013-02-21 21:17:00,
2013-02-21 16:22:00,69.6,67.5,29.75,SSE,162,6.0,18.0,93,0.00,,,0.00,meteohub,2013-02-21 21:22:00,
2013-02-21 16:27:00,70.0,67.8,29.75,SSW,198,10.0,18.0,93,0.00,,,0.00,meteohub,2013-02-21 21:27:00,
2013-02-21 16:32:00,70.2,67.6,29.75,South,171,8.0,20.0,92,0.00,,,0.00,meteohub,2013-02-21 21:32:00,
2013-02-21 16:37:00,70.3,67.8,29.75,South,186,2.0,20.0,92,0.00,,,0.00,meteohub,2013-02-21 21:37:00,
2013-02-21 16:42:00,70.5,68.0,29.75,SSW,211,7.0,20.0,92,0.00,,,0.00,meteohub,2013-02-21 21:42:00,
2013-02-21 16:47:00,70.7,68.0,29.75,SW,232,11.0,17.0,91,0.00,,,0.00,meteohub,2013-02-21 21:47:00,
2013-02-21 16:52:00,71.1,68.4,29.76,SSW,192,1.0,18.0,91,0.00,,,0.00,meteohub,2013-02-21 21:52:00,
2013-02-21 16:57:00,71.1,68.0,29.75,SSW,195,5.0,18.0,90,0.00,,,0.00,meteohub,2013-02-21 21:57:00,
2013-02-21 17:02:00,71.2,68.2,29.76,SSW,209,9.0,18.0,90,0.00,,,0.00,meteohub,2013-02-21 22:02:00,
2013-02-21 17:07:00,71.4,68.4,29.76,SW,216,5.0,18.0,90,0.00,,,0.00,meteohub,2013-02-21 22:07:00,
2013-02-21 17:12:00,71.4,68.4,29.76,WSW,247,3.0,18.0,90,0.00,,,0.00,meteohub,2013-02-21 22:12:00,
2013-02-21 17:17:00,71.4,68.4,29.76,WSW,247,10.0,18.0,90,0.00,,,0.00,meteohub,2013-02-21 22:17:00,
2013-02-21 17:22:00,71.8,68.4,29.76,SW,230,7.0,19.0,89,0.00,,,0.00,meteohub,2013-02-21 22:22:00,
2013-02-21 17:27:00,72.0,68.5,29.75,SSW,197,15.0,19.0,89,0.00,,,0.00,meteohub,2013-02-21 22:27:00,
2013-02-21 17:33:00,72.1,68.7,29.76,SW,221,11.0,23.0,89,0.00,,,0.00,meteohub,2013-02-21 22:33:00,
2013-02-21 17:38:00,72.1,68.4,29.75,SSW,213,11.0,23.0,88,0.00,,,0.00,meteohub,2013-02-21 22:38:00,
2013-02-21 17:43:00,72.1,68.4,29.75,SSW,200,19.0,23.0,88,0.00,,,0.00,meteohub,2013-02-21 22:43:00,
2013-02-21 17:48:00,72.1,68.4,29.76,SW,233,5.0,21.0,88,0.00,,,0.00,meteohub,2013-02-21 22:48:00,
2013-02-21 17:53:00,72.1,68.4,29.75,SSW,192,13.0,26.0,88,0.00,,,0.00,meteohub,2013-02-21 22:53:00,
2013-02-21 17:58:00,72.1,68.4,29.76,WSW,249,13.0,26.0,88,0.00,,,0.00,meteohub,2013-02-21 22:58:00,
2013-02-21 18:03:00,72.1,68.4,29.76,South,190,9.0,22.0,88,0.00,,,0.00,meteohub,2013-02-21 23:03:00,
2013-02-21 18:08:00,72.1,68.7,29.77,West,260,4.0,23.0,89,0.00,,,0.00,meteohub,2013-02-21 23:08:00,
2013-02-21 18:13:00,71.8,68.4,29.77,South,190,11.0,23.0,89,0.00,,,0.00,meteohub,2013-02-21 23:13:00,
2013-02-21 18:18:00,71.4,68.4,29.77,WSW,242,19.0,19.0,90,0.00,,,0.00,meteohub,2013-02-21 23:18:00,
2013-02-21 18:23:00,71.2,68.5,29.77,SSW,203,1.0,19.0,91,0.00,,,0.00,meteohub,2013-02-21 23:23:00,
2013-02-21 18:28:00,71.1,68.4,29.77,SW,218,11.0,19.0,91,0.00,,,0.00,meteohub,2013-02-21 23:28:00,
2013-02-21 18:33:00,70.9,68.4,29.78,SSW,212,6.0,20.0,92,0.00,,,0.00,meteohub,2013-02-21 23:33:00,
2013-02-21 18:38:00,70.9,68.4,29.78,WSW,242,4.0,20.0,92,0.00,,,0.00,meteohub,2013-02-21 23:38:00,
2013-02-21 18:44:00,70.9,68.4,29.78,SW,226,2.0,20.0,92,0.00,,,0.00,meteohub,2013-02-21 23:44:00,
2013-02-21 18:49:00,70.9,68.4,29.77,SSW,213,11.0,19.0,92,0.00,,,0.00,meteohub,2013-02-21 23:49:00,
2013-02-21 18:54:00,70.9,68.4,29.78,SSW,208,5.0,19.0,92,0.00,,,0.00,meteohub,2013-02-21 23:54:00,
2013-02-21 18:59:00,70.9,68.4,29.78,SSW,197,8.0,18.0,92,0.00,,,0.00,meteohub,2013-02-21 23:59:00,
2013-02-21 19:04:00,70.9,68.4,29.78,SSW,202,2.0,18.0,92,0.00,,,0.00,meteohub,2013-02-22 00:04:00,
2013-02-21 19:09:00,70.9,68.4,29.79,South,188,0.0,18.0,92,0.00,,,0.00,meteohub,2013-02-22 00:09:00,
2013-02-21 19:14:00,70.9,68.4,29.78,WSW,244,0.0,17.0,92,0.00,,,0.00,meteohub,2013-02-22 00:14:00,
2013-02-21 19:19:00,71.1,68.5,29.79,SSW,205,7.0,15.0,92,0.00,,,0.00,meteohub,2013-02-22 00:19:00,
2013-02-21 19:24:00,71.1,68.5,29.79,SW,233,4.0,15.0,92,0.00,,,0.00,meteohub,2013-02-22 00:24:00,
2013-02-21 19:29:00,71.2,68.5,29.79,SSW,207,6.0,15.0,91,0.00,,,0.00,meteohub,2013-02-22 00:29:00,
2013-02-21 19:34:00,71.2,68.5,29.79,WSW,244,8.0,16.0,91,0.00,,,0.00,meteohub,2013-02-22 00:34:00,
2013-02-21 19:39:00,71.4,68.7,29.80,SSW,205,9.0,16.0,91,0.00,,,0.00,meteohub,2013-02-22 00:39:00,
2013-02-21 19:44:00,71.4,68.7,29.80,SSW,197,10.0,16.0,91,0.00,,,0.00,meteohub,2013-02-22 00:44:00,
2013-02-21 19:49:00,71.4,68.7,29.80,SW,214,5.0,18.0,91,0.00,,,0.00,meteohub,2013-02-22 00:49:00,
2013-02-21 19:55:00,71.4,68.7,29.80,SW,236,6.0,18.0,91,0.00,,,0.00,meteohub,2013-02-22 00:55:00,
2013-02-21 20:00:00,71.6,68.9,29.80,SW,221,11.0,14.0,91,0.00,,,0.00,meteohub,2013-02-22 01:00:00,
2013-02-21 20:05:00,71.6,68.9,29.80,SSW,193,8.0,17.0,91,0.00,,,0.00,meteohub,2013-02-22 01:05:00,
2013-02-21 20:10:00,71.6,68.5,29.80,South,175,5.0,20.0,90,0.00,,,0.00,meteohub,2013-02-22 01:10:00,
2013-02-21 20:15:00,71.4,68.7,29.81,South,187,2.0,20.0,91,0.00,,,0.00,meteohub,2013-02-22 01:15:00,
2013-02-21 20:20:00,71.4,68.7,29.81,SSW,205,4.0,20.0,91,0.00,,,0.00,meteohub,2013-02-22 01:20:00,
2013-02-21 20:25:00,71.4,68.7,29.81,WSW,243,10.0,18.0,91,0.00,,,0.00,meteohub,2013-02-22 01:25:00,
2013-02-21 20:30:00,71.4,68.7,29.81,WSW,248,4.0,18.0,91,0.00,,,0.00,meteohub,2013-02-22 01:30:00,
2013-02-21 20:35:00,71.4,68.7,29.81,SW,214,10.0,18.0,91,0.00,,,0.00,meteohub,2013-02-22 01:35:00,
2013-02-21 20:40:00,71.4,68.7,29.81,SW,227,0.0,14.0,91,0.00,,,0.00,meteohub,2013-02-22 01:40:00,
2013-02-21 20:45:00,71.4,68.7,29.81,SW,225,4.0,14.0,91,0.00,,,0.00,meteohub,2013-02-22 01:45:00,
2013-02-21 20:50:00,71.2,68.5,29.82,SW,230,4.0,11.0,91,0.00,,,0.00,meteohub,2013-02-22 01:50:00,
2013-02-21 20:55:00,71.2,68.5,29.82,SSW,198,4.0,14.0,91,0.00,,,0.00,meteohub,2013-02-22 01:55:00,
2013-02-21 21:00:00,71.2,68.5,29.82,SSW,213,0.0,19.0,91,0.00,,,0.00,meteohub,2013-02-22 02:00:00,
2013-02-21 21:05:00,71.2,68.5,29.82,WSW,241,7.0,19.0,91,0.00,,,0.00,meteohub,2013-02-22 02:05:00,
2013-02-21 21:10:00,71.2,68.5,29.82,SW,231,2.0,19.0,91,0.00,,,0.00,meteohub,2013-02-22 02:10:00,
2013-02-21 21:15:00,71.2,68.5,29.82,SSW,200,4.0,18.0,91,0.00,,,0.00,meteohub,2013-02-22 02:15:00,
2013-02-21 21:21:00,71.2,68.5,29.82,SW,219,5.0,18.0,91,0.00,,,0.00,meteohub,2013-02-22 02:21:00,
2013-02-21 21:26:00,71.2,68.5,29.83,SW,227,12.0,18.0,91,0.00,,,0.00,meteohub,2013-02-22 02:26:00,
2013-02-21 21:31:00,71.2,68.5,29.83,SW,216,6.0,16.0,91,0.00,,,0.00,meteohub,2013-02-22 02:31:00,
2013-02-21 21:36:00,71.2,68.5,29.83,SW,234,6.0,16.0,91,0.00,,,0.00,meteohub,2013-02-22 02:36:00,
2013-02-21 21:41:00,71.2,68.5,29.83,SSE,161,4.0,18.0,91,0.00,,,0.00,meteohub,2013-02-22 02:41:00,
2013-02-21 21:46:00,71.2,68.5,29.82,South,181,2.0,18.0,91,0.00,,,0.00,meteohub,2013-02-22 02:46:00,
2013-02-21 21:51:00,71.2,68.5,29.83,SSW,196,3.0,21.0,91,0.00,,,0.00,meteohub,2013-02-22 02:51:00,
2013-02-21 21:56:00,71.4,68.9,29.83,SSW,211,3.0,21.0,92,0.00,,,0.00,meteohub,2013-02-22 02:56:00,
2013-02-21 22:01:00,71.4,68.7,29.83,SSW,211,9.0,21.0,91,0.00,,,0.00,meteohub,2013-02-22 03:01:00,
2013-02-21 22:06:00,71.4,68.7,29.83,SW,230,5.0,21.0,91,0.00,,,0.00,meteohub,2013-02-22 03:06:00,
2013-02-21 22:11:00,71.4,68.7,29.83,WSW,238,2.0,21.0,91,0.00,,,0.00,meteohub,2013-02-22 03:11:00,
2013-02-21 22:16:00,71.4,68.7,29.83,WSW,246,3.0,17.0,91,0.00,,,0.00,meteohub,2013-02-22 03:16:00,
2013-02-21 22:21:00,71.4,68.7,29.84,SW,227,7.0,13.0,91,0.00,,,0.00,meteohub,2013-02-22 03:21:00,
2013-02-21 22:26:00,71.2,68.5,29.84,South,190,4.0,13.0,91,0.00,,,0.00,meteohub,2013-02-22 03:26:00,
2013-02-21 22:31:00,71.4,68.7,29.84,WSW,238,2.0,12.0,91,0.00,,,0.00,meteohub,2013-02-22 03:31:00,
2013-02-21 22:36:00,71.4,68.7,29.84,West,271,8.0,13.0,91,0.00,,,0.00,meteohub,2013-02-22 03:36:00,
2013-02-21 22:41:00,71.2,68.7,29.84,SW,225,1.0,13.0,92,0.00,,,0.00,meteohub,2013-02-22 03:41:00,
2013-02-21 22:46:00,71.2,68.7,29.84,WNW,286,4.0,11.0,92,0.00,,,0.00,meteohub,2013-02-22 03:46:00,
2013-02-21 22:52:00,71.2,68.7,29.84,WSW,246,2.0,11.0,92,0.00,,,0.00,meteohub,2013-02-22 03:52:00,
2013-02-21 22:57:00,71.2,68.7,29.84,South,185,1.0,11.0,92,0.00,,,0.00,meteohub,2013-02-22 03:57:00,
2013-02-21 23:02:00,71.2,68.7,29.84,SW,230,0.0,11.0,92,0.00,,,0.00,meteohub,2013-02-22 04:02:00,
2013-02-21 23:07:00,71.2,68.7,29.84,SW,224,5.0,11.0,92,0.00,,,0.00,meteohub,2013-02-22 04:07:00,
2013-02-21 23:12:00,71.2,68.7,29.84,SW,215,2.0,11.0,92,0.00,,,0.00,meteohub,2013-02-22 04:12:00,
2013-02-21 23:17:00,71.2,68.7,29.84,SSW,208,3.0,12.0,92,0.00,,,0.00,meteohub,2013-02-22 04:17:00,
2013-02-21 23:22:00,71.2,68.7,29.84,SW,217,3.0,12.0,92,0.00,,,0.00,meteohub,2013-02-22 04:22:00,
2013-02-21 23:27:00,71.2,68.7,29.85,South,186,0.0,12.0,92,0.00,,,0.00,meteohub,2013-02-22 04:27:00,
2013-02-21 23:32:00,71.2,68.7,29.85,SSW,202,0.0,11.0,92,0.00,,,0.00,meteohub,2013-02-22 04:32:00,
2013-02-21 23:38:00,71.2,68.7,29.85,SSW,205,4.0,11.0,92,0.00,,,0.00,meteohub,2013-02-22 04:38:00,
2013-02-21 23:43:00,71.2,68.7,29.86,SW,232,0.0,13.0,92,0.00,,,0.00,meteohub,2013-02-22 04:43:00,
2013-02-21 23:48:00,71.2,68.7,29.85,WSW,240,0.0,13.0,92,0.00,,,0.00,meteohub,2013-02-22 04:48:00,
2013-02-21 23:53:00,71.2,68.7,29.85,WSW,239,0.0,12.0,92,0.00,,,0.00,meteohub,2013-02-22 04:53:00,
2013-02-21 23:58:00,71.2,68.7,29.86,SSW,203,1.0,12.0,92,0.00,,,0.00,meteohub,2013-02-22 04:58:00,